Location: Alexander
(41.3564°N, 81.5960°W)
Time: 09:32:21
(UTC+00:00)

Cosmos 1703 - Pass Details

Date: 24 January 2021
Orbit: 524 x 538 km, 82.5° (Epoch: 02 March)

Event Time Altitude Azimuth Distance (km) Brightness Sun altitude
Rises 23:05:28 0° 160° (SSE) 2,649 6.8 -6.4°
Reaches altitude 10° 23:07:49 10° 148° (SSE) 1,763 5.8 -6.9°
Maximum altitude 23:11:05 27° 90° (E) 1,046 4.2 -7.4°
Drops below altitude 10° 23:14:22 10° 32° (NNE) 1,773 5.5 -8.0°
Sets 23:16:45 0° 20° (NNE) 2,667 6.4 -8.5°
